When you browse on this site, cookies collect data to enhance your experience and personalize the content and advertising you see.
Visit our Privacy Policy to learn more. By continuing to use the site, you agree to this use of cookies and data.
  • In Hungary
  • List of Countries
  • For 7 days
  • Water Temperature
  • Satellite Maps
  • Weather Map
  • News
  • Weather Widgets
  • user-avatar
    Login

    Hourly Weather Bukavu

    Today, 16 January, Wednesday

    Time Temperature Precipitation Wind Pressure Humidity
    00:00 +23°C° 0.1 mm 1 mps 688 mmHg 83%
    01:00 +22°C° 0.1 mm 1 mps 688 mmHg 87%
    02:00 +22°C° 0.1 mm 1 mps 688 mmHg 90%
    03:00 +21°C° 0 mm 1 mps 688 mmHg 93%
    04:00 +21°C° 0 mm 1 mps 688 mmHg 96%
    05:00 +21°C° 0 mm 1 mps 688 mmHg 99%
    06:00 +22°C° 0 mm 1 mps 689 mmHg 93%
    07:00 +23°C° 0 mm 1 mps 689 mmHg 88%
    08:00 +24°C° 0 mm 1 mps 690 mmHg 83%
    09:00 +27°C° 0 mm 1 mps 690 mmHg 70%
    10:00 +30°C° 0 mm 1 mps 690 mmHg 57%
    11:00 +33°C° 0 mm 1 mps 690 mmHg 43%
    12:00 +33°C° 0 mm 1 mps 690 mmHg 44%
    13:00 +32°C° 0 mm 1 mps 689 mmHg 45%
    14:00 +30°C° 0 mm 0 mps 688 mmHg 46%
    15:00 +28°C° 0.2 mm 0 mps 688 mmHg 56%
    16:00 +26°C° 0.2 mm 0 mps 687 mmHg 66%
    17:00 +26°C° 0.2 mm 1 mps 686 mmHg 75%
    18:00 +23°C° 0.1 mm 0 mps 687 mmHg 77%
    19:00 +23°C° 0.1 mm 0 mps 687 mmHg 79%
    20:00 +22°C° 0.1 mm 0 mps 687 mmHg 81%
    21:00 +22°C° 0 mm 0 mps 688 mmHg 81%
    22:00 +21°C° 0 mm 0 mps 688 mmHg 81%
    23:00 +21°C° 0 mm 0 mps 688 mmHg 81%

    Tomorrow, 17 January, Thursday

    Time Temperature Precipitation Wind Pressure Humidity
    00:00 +23°C° 0 mm 1 mps 688 mmHg 85%
    01:00 +22°C° 0 mm 1 mps 688 mmHg 89%
    02:00 +21°C° 0 mm 1 mps 687 mmHg 93%
    03:00 +21°C° 0 mm 1 mps 687 mmHg 95%
    04:00 +21°C° 0 mm 1 mps 687 mmHg 96%
    05:00 +21°C° 0 mm 1 mps 687 mmHg 98%
    06:00 +22°C° 0 mm 1 mps 688 mmHg 92%
    07:00 +23°C° 0 mm 2 mps 688 mmHg 86%
    08:00 +24°C° 0 mm 2 mps 689 mmHg 80%
    09:00 +27°C° 0 mm 2 mps 689 mmHg 68%
    10:00 +30°C° 0 mm 1 mps 689 mmHg 56%
    11:00 +33°C° 0 mm 1 mps 690 mmHg 44%
    12:00 +34°C° 0 mm 1 mps 689 mmHg 37%
    13:00 +36°C° 0 mm 1 mps 689 mmHg 31%
    14:00 +37°C° 0 mm 1 mps 688 mmHg 24%
    15:00 +36°C° 0 mm 1 mps 687 mmHg 28%
    16:00 +35°C° 0 mm 1 mps 687 mmHg 32%
    17:00 +31°C° 0 mm 0 mps 687 mmHg 36%
    18:00 +29°C° 0 mm 0 mps 687 mmHg 41%
    19:00 +27°C° 0 mm 0 mps 687 mmHg 45%
    20:00 +25°C° 0 mm 0 mps 687 mmHg 49%
    21:00 +24°C° 0 mm 0 mps 687 mmHg 54%
    22:00 +25°C° 0 mm 1 mps 687 mmHg 58%
    23:00 +24°C° 0 mm 1 mps 687 mmHg 63%

    Day after tomorrow, 18 January, Friday

    Time Temperature Precipitation Wind Pressure Humidity
    00:00 +23°C° 0 mm 1 mps 687 mmHg 69%
    01:00 +22°C° 0 mm 1 mps 687 mmHg 75%
    02:00 +22°C° 0 mm 1 mps 686 mmHg 81%
    03:00 +21°C° 0.1 mm 1 mps 686 mmHg 85%
    04:00 +20°C° 0.1 mm 1 mps 686 mmHg 89%
    05:00 +20°C° 0.1 mm 1 mps 686 mmHg 93%
    06:00 +20°C° 0 mm 0 mps 687 mmHg 86%
    07:00 +21°C° 0 mm 0 mps 688 mmHg 79%
    08:00 +23°C° 0 mm 0 mps 689 mmHg 72%
    09:00 +26°C° 0 mm 0 mps 690 mmHg 61%
    10:00 +31°C° 0 mm 1 mps 690 mmHg 51%
    11:00 +34°C° 0 mm 1 mps 690 mmHg 40%
    12:00 +33°C° 0 mm 1 mps 689 mmHg 40%
    13:00 +33°C° 0 mm 1 mps 688 mmHg 40%
    14:00 +32°C° 0 mm 1 mps 687 mmHg 40%
    15:00 +32°C° 0 mm 1 mps 687 mmHg 39%
    16:00 +32°C° 0 mm 1 mps 686 mmHg 39%
    17:00 +32°C° 0 mm 1 mps 686 mmHg 38%
    18:00 +30°C° 0 mm 1 mps 686 mmHg 45%
    19:00 +28°C° 0 mm 1 mps 687 mmHg 52%
    20:00 +25°C° 0 mm 1 mps 687 mmHg 58%
    21:00 +25°C° 0 mm 1 mps 687 mmHg 61%
    22:00 +24°C° 0 mm 1 mps 687 mmHg 63%
    23:00 +23°C° 0 mm 1 mps 687 mmHg 66%

    19 January, Saturday

    Time Temperature Precipitation Wind Pressure Humidity
    00:00 +22°C° 0 mm 1 mps 687 mmHg 70%
    01:00 +22°C° 0 mm 1 mps 686 mmHg 75%
    02:00 +21°C° 0 mm 1 mps 686 mmHg 79%
    03:00 +21°C° 0 mm 1 mps 686 mmHg 81%
    04:00 +21°C° 0 mm 1 mps 687 mmHg 83%
    05:00 +20°C° 0 mm 1 mps 687 mmHg 85%
    06:00 +20°C° 0 mm 0 mps 688 mmHg 77%
    07:00 +22°C° 0 mm 0 mps 689 mmHg 69%
    08:00 +24°C° 0 mm 0 mps 690 mmHg 61%
    09:00 +28°C° 0 mm 1 mps 690 mmHg 51%
    10:00 +31°C° 0 mm 1 mps 690 mmHg 41%
    11:00 +34°C° 0 mm 1 mps 690 mmHg 31%
    12:00 +35°C° 0 mm 1 mps 689 mmHg 27%
    13:00 +36°C° 0 mm 1 mps 689 mmHg 23%
    14:00 +37°C° 0 mm 1 mps 688 mmHg 19%
    15:00 +36°C° 0 mm 1 mps 688 mmHg 23%
    16:00 +34°C° 0 mm 1 mps 687 mmHg 26%
    17:00 +33°C° 0 mm 1 mps 687 mmHg 29%
    18:00 +30°C° 0 mm 1 mps 687 mmHg 41%
    19:00 +28°C° 0 mm 1 mps 687 mmHg 54%
    20:00 +26°C° 0 mm 1 mps 688 mmHg 66%
    21:00 +25°C° 0 mm 1 mps 688 mmHg 70%
    22:00 +24°C° 0 mm 1 mps 688 mmHg 74%
    23:00 +23°C° 0 mm 1 mps 688 mmHg 78%

    20 January, Sunday

    Time Temperature Precipitation Wind Pressure Humidity
    00:00 +23°C° 0 mm 1 mps 688 mmHg 81%
    01:00 +22°C° 0 mm 1 mps 688 mmHg 83%
    02:00 +22°C° 0 mm 1 mps 687 mmHg 86%
    03:00 +21°C° 0 mm 1 mps 688 mmHg 89%
    04:00 +21°C° 0 mm 1 mps 688 mmHg 92%
    05:00 +18°C° 0 mm 0 mps 688 mmHg 95%
    06:00 +22°C° 0 mm 1 mps 688 mmHg 85%
    07:00 +24°C° 0 mm 1 mps 689 mmHg 76%
    08:00 +26°C° 0 mm 1 mps 690 mmHg 66%
    09:00 +29°C° 0 mm 1 mps 690 mmHg 55%
    10:00 +33°C° 0 mm 1 mps 690 mmHg 44%
    11:00 +36°C° 0 mm 1 mps 691 mmHg 32%
    12:00 +35°C° 0 mm 1 mps 690 mmHg 31%
    13:00 +35°C° 0 mm 1 mps 689 mmHg 30%
    14:00 +35°C° 0 mm 1 mps 688 mmHg 29%
    15:00 +33°C° 0 mm 1 mps 687 mmHg 37%
    16:00 +31°C° 0 mm 1 mps 687 mmHg 44%
    17:00 +26°C° 0 mm 0 mps 686 mmHg 51%
    18:00 +25°C° 0 mm 0 mps 687 mmHg 54%
    19:00 +24°C° 0 mm 0 mps 687 mmHg 57%
    20:00 +23°C° 0 mm 0 mps 687 mmHg 59%
    21:00 +23°C° 0 mm 0 mps 687 mmHg 59%
    22:00 +22°C° 0 mm 0 mps 688 mmHg 59%
    23:00 +22°C° 0 mm 0 mps 688 mmHg 59%

    21 January, Monday

    Time Temperature Precipitation Wind Pressure Humidity
    00:00 +21°C° 0 mm 0 mps 688 mmHg 61%
    01:00 +21°C° 0 mm 0 mps 687 mmHg 62%
    02:00 +22°C° 0 mm 1 mps 687 mmHg 63%
    03:00 +20°C° 0 mm 0 mps 687 mmHg 66%
    04:00 +19°C° 0 mm 0 mps 687 mmHg 69%
    05:00 +18°C° 0 mm 0 mps 687 mmHg 72%
    06:00 +20°C° 0 mm 0 mps 688 mmHg 66%
    07:00 +22°C° 0 mm 0 mps 689 mmHg 61%
    08:00 +24°C° 0 mm 0 mps 690 mmHg 56%
    09:00 +27°C° 0 mm 0 mps 690 mmHg 45%
    10:00 +33°C° 0 mm 1 mps 690 mmHg 33%
    11:00 +36°C° 0 mm 1 mps 690 mmHg 22%
    12:00 +37°C° 0 mm 1 mps 690 mmHg 20%
    13:00 +39°C° 0 mm 1 mps 689 mmHg 17%
    14:00 +39°C° 0 mm 1 mps 688 mmHg 15%
    15:00 +39°C° 0 mm 1 mps 687 mmHg 17%
    16:00 +37°C° 0 mm 1 mps 687 mmHg 19%
    17:00 +34°C° 0 mm 0 mps 686 mmHg 21%
    18:00 +31°C° 0 mm 0 mps 686 mmHg 25%
    19:00 +28°C° 0 mm 0 mps 686 mmHg 30%
    20:00 +24°C° 0 mm 0 mps 686 mmHg 35%
    21:00 +24°C° 0 mm 0 mps 686 mmHg 36%
    22:00 +24°C° 0 mm 0 mps 687 mmHg 36%
    23:00 +26°C° 0 mm 1 mps 687 mmHg 37%
    Show more